[[{"header":{"parameterUnit":"m.s-1","parameterCategory":1,"la1":30.2991,"la2":30.254,"lo1":-89.0895,"lo2":-89.0444,"dy":0.0017,"dx":0.0017,"nx":28,"ny":28,"refTime":"2024-03-17T03:00:00:Z","depth":0,"parameterNumber":2,"parameterNumberName":"U-component_of_WINDS"},"data":[0,0,0,0,0,0,0,0,0,0,0,0,0,0,0,0,0,0,0,0,0,0,0,0,0,0,0,0,0,0,0,0,0,0,0,0,0,0,0,0,0,0,0,0,0,0,0,0,0,0,0,0,0,0,0,0,0,0,-1.7344,-1.7344,0,-1.7331,-1.7331,-1.7331,-1.7335,-1.7336,-1.7336,-1.7336,-1.7321,-1.732,-1.7319,0,0,0,0,0,0,0,0,0,0,0,0,0,-1.7371,-1.7371,-1.7344,-1.7344,-1.7344,-1.7331,-1.7331,-1.7331,-1.7335,-1.7336,-1.7336,-1.7336,-1.7321,-1.732,-1.7319,0,0,0,0,0,0,0,0,0,0,0,0,0,-1.7359,-1.737,-1.7344,-1.7345,-1.7345,-1.7331,-1.7331,-1.733,-1.7335,-1.7336,-1.7336,-1.7337,-1.7321,-1.732,-1.7319,-1.7304,0,0,-1.7316,-1.7315,0,0,0,0,0,0,0,0,-1.7359,-1.7358,-1.7345,-1.7345,-1.7344,-1.7335,-1.7335,-1.7321,-1.7335,-1.7339,-1.7336,-1.7337,-1.7325,-1.7324,-1.732,-1.7303,-1.7302,-1.7316,-1.7315,-1.7315,-1.7314,0,0,0,0,0,0,0,-1.736,-1.7358,-1.7339,-1.7345,-1.7344,-1.7345,-1.7343,-1.7332,-1.7329,-1.7338,-1.7339,-1.7337,-1.7325,-1.7321,-1.732,-1.7302,-1.7316,-1.7315,-1.7314,-1.7314,-1.727,-1.727,0,0,0,0,0,0,-1.7361,-1.7359,-1.7339,-1.7338,-1.7353,-1.7344,-1.7342,-1.7338,-1.733,-1.7329,-1.7337,-1.7337,-1.7323,-1.7321,-1.7319,-1.73,-1.7315,-1.7314,-1.7313,-1.7271,-1.727,-1.727,0,0,0,0,0,0,-1.7362,-1.736,-1.734,-1.7349,-1.7346,-1.7343,-1.7338,-1.7337,-1.7333,-1.7328,-1.7328,-1.7334,-1.7323,-1.7321,-1.7307,-1.73,-1.7313,-1.7312,-1.7272,-1.7271,-1.727,-1.7262,0,0,0,0,0,0,-1.7363,-1.736,-1.7355,-1.7349,-1.7346,-1.7329,-1.7337,-1.7337,-1.7332,-1.7333,-1.7325,-1.7324,-1.7323,-1.7309,-1.7306,-1.7299,-1.7312,-1.7272,-1.7271,-1.727,-1.7263,-1.7261,-1.726,0,0,0,0,0,-1.7364,-1.7353,-1.7354,-1.7352,-1.7339,-1.7329,-1.7327,-1.7326,-1.7331,-1.7325,-1.7322,-1.7325,-1.7301,-1.7308,-1.7305,-1.7296,-1.7273,-1.7271,-1.727,-1.7264,-1.7262,-1.726,0,0,0,0,0,0,-1.7357,-1.7352,-1.7354,-1.7341,-1.7335,-1.7329,-1.7322,-1.7324,-1.7316,-1.7317,-1.7316,-1.7315,-1.7301,-1.7297,-1.7305,-1.728,-1.7287,-1.7286,-1.7283,-1.7281,-1.728,-1.7281,-1.7311,0,0,0,0,0,-1.7354,-1.7347,-1.7342,-1.7331,-1.7328,-1.7326,-1.7321,-1.7321,-1.7315,-1.7312,-1.7308,-1.7301,-1.7292,-1.7287,-1.7278,-1.7262,-1.726,-1.7255,-1.7253,-1.7252,-1.725,-1.7241,-1.7238,-1.7266,-1.7266,-1.7266,0,0,-1.7348,-1.7344,-1.734,-1.733,-1.7325,-1.7317,-1.7324,-1.7314,-1.7308,-1.7311,-1.7298,-1.7294,-1.7287,-1.7272,-1.7265,-1.7269,-1.7242,-1.725,-1.7249,-1.7249,-1.724,-1.7237,-1.7235,-1.7265,-1.7265,-1.7265,0,0,-1.7333,-1.7329,-1.7319,-1.7315,-1.7308,-1.7307,-1.7304,-1.7298,-1.7296,-1.7283,-1.7285,-1.7277,-1.7262,-1.7256,-1.7251,-1.7232,-1.7234,-1.723,-1.722,-1.7211,-1.7209,-1.7207,-1.72,-1.7198,-1.7228,-1.7228,-1.7228,0,-1.7326,-1.7314,-1.7314,-1.7304,-1.7299,-1.7302,-1.7291,-1.7287,-1.7278,-1.7274,-1.7278,-1.7258,-1.7253,-1.7237,-1.7233,-1.7229,-1.7225,-1.7231,-1.721,-1.7208,-1.7206,-1.7199,-1.7196,-1.7227,-1.7227,-1.7228,-1.7228,0,-1.7305,-1.7296,-1.7289,-1.7281,-1.7275,-1.7265,-1.7263,-1.7257,-1.7257,-1.7254,-1.7241,-1.7235,-1.7225,-1.7221,-1.7221,-1.7204,-1.7207,-1.721,-1.7217,-1.7203,-1.7196,-1.7194,-1.7227,-1.7227,-1.7227,-1.7227,0,0,-1.7285,-1.7277,-1.7274,-1.727,-1.7263,-1.7256,-1.7245,-1.7236,-1.7231,-1.7224,-1.7215,-1.7201,-1.7204,-1.7199,-1.7198,-1.719,-1.7175,-1.7194,-1.7194,-1.7191,-1.7155,-1.7153,-1.715,-1.7176,-1.7175,-1.7175,-1.7156,0,-1.7269,-1.7252,-1.7251,-1.7235,-1.7227,-1.7229,-1.7219,-1.7213,-1.721,-1.7202,-1.7199,-1.7189,-1.7194,-1.7191,-1.7183,-1.7179,-1.7168,-1.718,-1.7167,-1.7166,-1.7169,-1.7147,-1.7144,-1.7127,-1.7154,-1.7153,-1.7153,0,-1.7248,-1.7241,-1.7224,-1.7218,-1.7214,-1.7206,-1.7197,-1.7189,-1.7182,-1.7181,-1.7174,-1.7174,-1.7162,-1.717,-1.7153,-1.7161,-1.7155,-1.7152,-1.7152,-1.715,-1.7159,-1.7145,-1.7121,-1.7119,-1.7149,-1.7149,-1.7149,0,-1.7235,-1.7221,-1.721,-1.7206,-1.7198,-1.7192,-1.7188,-1.7182,-1.7176,-1.7168,-1.7164,-1.7154,-1.7149,-1.7141,-1.7138,-1.7144,-1.7121,-1.7128,-1.7119,-1.7119,-1.7115,-1.7115,-1.7089,-1.7111,-1.7111,-1.7111,-1.7111,0,-1.7217,-1.7207,-1.7204,-1.7196,-1.7184,-1.7183,-1.7171,-1.7167,-1.7161,-1.7152,-1.7153,-1.7145,-1.7142,-1.7132,-1.713,-1.7116,-1.7113,-1.7111,-1.7111,-1.7111,-1.7112,-1.7108,-1.7109,-1.711,-1.711,-1.711,-1.7111,0,-1.7201,-1.7199,-1.7186,-1.7179,-1.7177,-1.7169,-1.7162,-1.7155,-1.7152,-1.7141,-1.7138,-1.7133,-1.7122,-1.7118,-1.7105,-1.7103,-1.7087,-1.7088,-1.709,-1.709,-1.7081,-1.7081,-1.7052,-1.7048,-1.7072,-1.7071,-1.7071,0,-1.719,-1.7182,-1.7174,-1.7169,-1.7165,-1.7156,-1.715,-1.7148,-1.7142,-1.7133,-1.7126,-1.7115,-1.7107,-1.7089,-1.7084,-1.7073,-1.7073,-1.7064,-1.7072,-1.7072,-1.7073,-1.7073,-1.7072,-1.7062,-1.7062,-1.7062,-1.7062,0,-1.717,-1.7169,-1.7161,-1.7153,-1.7146,-1.7139,-1.7132,-1.7127,-1.7124,-1.7117,-1.7106,-1.7099,-1.7085,-1.7074,-1.7064,-1.7059,-1.7059,-1.7059,-1.7056,-1.7057,-1.7058,-1.7057,-1.7086,-1.706,-1.706,-1.706,-1.706,-1.706,-1.7156,-1.7149,-1.7142,-1.7133,-1.7128,-1.7121,-1.7114,-1.711,-1.7101,-1.709,-1.7089,-1.7077,-1.7069,-1.7055,-1.7049,-1.7039,-1.7042,-1.7038,-1.7037,-1.7036,-1.7035,-1.706,-1.7037,-1.7037,-1.7037,-1.7037,-1.7037,0,-1.7136,-1.7132,-1.7124,-1.7114,-1.7107,-1.7108,-1.7101,-1.7094,-1.7084,-1.7077,-1.7068,-1.7055,-1.7044,-1.7038,-1.7026,-1.702,-1.702,-1.7017,-1.7017,-1.7016,-1.7033,-1.7037,-1.7017,-1.7017,-1.7017,-1.7017,-1.7017,-1.7017,-1.7125,-1.7113,-1.7111,-1.7096,-1.7091,-1.708,-1.7076,-1.7069,-1.7063,-1.7049,-1.704,-1.7036,-1.7029,-1.7017,-1.7007,-1.7005,-1.7001,-1.6998,-1.6996,-1.7013,-1.7015,-1.7017,-1.702,-1.6997,-1.6997,-1.698,-1.698,-1.6979]},{"header":{"parameterUnit":"m.s-1","parameterCategory":1,"la1":30.2991,"la2":30.254,"lo1":-89.0895,"lo2":-89.0444,"dy":0.0017,"dx":0.0017,"nx":28,"ny":28,"refTime":"2024-03-17T03:00:00:Z","depth":0,"parameterNumber":3,"parameterNumberName":"V-component_of_WINDS"},"data":[0,0,0,0,0,0,0,0,0,0,0,0,0,0,0,0,0,0,0,0,0,0,0,0,0,0,0,0,0,0,0,0,0,0,0,0,0,0,0,0,0,0,0,0,0,0,0,0,0,0,0,0,0,0,0,0,0,0,-1.3213,-1.3215,0,-1.3337,-1.3338,-1.334,-1.3394,-1.3394,-1.3393,-1.3393,-1.352,-1.3524,-1.3527,0,0,0,0,0,0,0,0,0,0,0,0,0,-1.3026,-1.3029,-1.3213,-1.3215,-1.3216,-1.3337,-1.3338,-1.334,-1.3394,-1.3394,-1.3393,-1.3393,-1.3519,-1.3523,-1.3527,0,0,0,0,0,0,0,0,0,0,0,0,0,-1.3124,-1.303,-1.3213,-1.3258,-1.3263,-1.3336,-1.3338,-1.334,-1.3394,-1.3394,-1.3393,-1.3393,-1.3518,-1.3523,-1.3528,-1.3566,0,0,-1.3544,-1.3546,0,0,0,0,0,0,0,0,-1.3118,-1.3131,-1.325,-1.3255,-1.3261,-1.335,-1.3319,-1.3416,-1.3394,-1.3344,-1.3393,-1.3393,-1.3464,-1.3473,-1.3497,-1.3572,-1.3577,-1.3545,-1.3548,-1.355,-1.3552,0,0,0,0,0,0,0,-1.3111,-1.3126,-1.3262,-1.3251,-1.3258,-1.3272,-1.3286,-1.3337,-1.3404,-1.3349,-1.3353,-1.3367,-1.3467,-1.3492,-1.35,-1.3579,-1.3544,-1.3549,-1.3552,-1.3555,-1.3693,-1.3694,0,0,0,0,0,0,-1.3097,-1.312,-1.3258,-1.3266,-1.3187,-1.3276,-1.3291,-1.3321,-1.3403,-1.3416,-1.3367,-1.3369,-1.3483,-1.3494,-1.3505,-1.3556,-1.355,-1.3555,-1.3558,-1.3693,-1.3693,-1.3694,0,0,0,0,0,0,-1.3093,-1.3109,-1.3253,-1.3194,-1.3214,-1.3279,-1.3313,-1.3324,-1.3349,-1.3417,-1.3429,-1.338,-1.3483,-1.3498,-1.3551,-1.3561,-1.3557,-1.3562,-1.3692,-1.3693,-1.3694,-1.3657,0,0,0,0,0,0,-1.3087,-1.3107,-1.3122,-1.3194,-1.3216,-1.3296,-1.3314,-1.3327,-1.3358,-1.3362,-1.3433,-1.3445,-1.3484,-1.3543,-1.3556,-1.3568,-1.3566,-1.3691,-1.3692,-1.3693,-1.3658,-1.3657,-1.3656,0,0,0,0,0,-1.308,-1.3107,-1.3122,-1.3139,-1.3236,-1.3297,-1.331,-1.3354,-1.3359,-1.3374,-1.3418,-1.3442,-1.3558,-1.3548,-1.3563,-1.3577,-1.3691,-1.3692,-1.3693,-1.3658,-1.3657,-1.3656,0,0,0,0,0,0,-1.3034,-1.3117,-1.3135,-1.3185,-1.3234,-1.3306,-1.3327,-1.3351,-1.3399,-1.3401,-1.3455,-1.347,-1.3519,-1.3554,-1.3541,-1.3619,-1.3627,-1.3631,-1.3595,-1.3594,-1.3593,-1.3584,-1.3571,0,0,0,0,0,-1.3029,-1.3071,-1.3142,-1.3179,-1.3203,-1.326,-1.3288,-1.3319,-1.3371,-1.3392,-1.344,-1.3489,-1.3537,-1.3568,-1.3615,-1.3663,-1.368,-1.3681,-1.368,-1.3679,-1.3682,-1.3711,-1.3713,-1.3698,-1.3698,-1.3698,0,0,-1.3021,-1.3071,-1.3094,-1.3171,-1.3212,-1.3255,-1.3277,-1.3321,-1.3354,-1.3399,-1.3452,-1.3489,-1.3548,-1.3599,-1.3624,-1.363,-1.369,-1.368,-1.3679,-1.3683,-1.3713,-1.3714,-1.3715,-1.3698,-1.3698,-1.3698,0,0,-1.3027,-1.3069,-1.3105,-1.3146,-1.3208,-1.3246,-1.3255,-1.3324,-1.335,-1.3404,-1.3439,-1.3479,-1.356,-1.3601,-1.3633,-1.3656,-1.368,-1.367,-1.3664,-1.3692,-1.3693,-1.3695,-1.3704,-1.3706,-1.3673,-1.3673,-1.3673,0,-1.3008,-1.3074,-1.3121,-1.3163,-1.3197,-1.3239,-1.3277,-1.3314,-1.3389,-1.3411,-1.3416,-1.3519,-1.3562,-1.3624,-1.363,-1.3654,-1.3666,-1.3662,-1.3689,-1.3691,-1.3693,-1.3703,-1.3706,-1.3671,-1.3671,-1.3671,-1.3671,0,-1.3048,-1.3093,-1.3115,-1.3186,-1.3222,-1.3261,-1.3315,-1.3346,-1.3374,-1.3412,-1.3467,-1.352,-1.358,-1.3597,-1.3624,-1.3663,-1.3665,-1.3679,-1.3687,-1.3692,-1.3702,-1.3706,-1.3669,-1.3669,-1.367,-1.367,0,0,-1.3028,-1.3125,-1.3132,-1.3165,-1.3237,-1.3273,-1.3316,-1.3374,-1.34,-1.345,-1.3487,-1.3555,-1.3569,-1.3605,-1.3637,-1.3661,-1.3678,-1.3673,-1.3675,-1.3673,-1.3725,-1.3715,-1.3718,-1.3694,-1.3695,-1.3696,-1.3721,0,-1.3044,-1.3121,-1.3166,-1.3225,-1.3268,-1.3309,-1.3347,-1.3395,-1.3432,-1.3474,-1.3515,-1.3563,-1.3577,-1.3599,-1.3625,-1.367,-1.3689,-1.3669,-1.373,-1.3732,-1.3714,-1.3723,-1.3712,-1.3733,-1.3725,-1.3725,-1.3726,0,-1.3073,-1.3123,-1.3186,-1.3254,-1.3274,-1.3306,-1.3364,-1.3404,-1.346,-1.3486,-1.3526,-1.3558,-1.3606,-1.361,-1.3677,-1.3662,-1.369,-1.3716,-1.3718,-1.3726,-1.3729,-1.3732,-1.374,-1.3744,-1.3732,-1.3732,-1.3731,0,-1.3053,-1.3135,-1.3185,-1.3212,-1.3292,-1.3314,-1.3349,-1.3405,-1.3437,-1.3488,-1.351,-1.3565,-1.3596,-1.3639,-1.3686,-1.3684,-1.3748,-1.3756,-1.3771,-1.377,-1.3782,-1.3781,-1.3796,-1.3799,-1.3799,-1.3799,-1.3799,0,-1.3067,-1.3104,-1.3177,-1.3207,-1.325,-1.3301,-1.3343,-1.3381,-1.3431,-1.347,-1.3509,-1.3545,-1.3605,-1.3648,-1.3685,-1.3735,-1.3749,-1.3771,-1.3781,-1.3768,-1.3765,-1.3787,-1.3787,-1.38,-1.38,-1.38,-1.3799,0,-1.3051,-1.3101,-1.3158,-1.323,-1.3249,-1.3278,-1.334,-1.3371,-1.341,-1.3459,-1.3474,-1.3535,-1.3589,-1.364,-1.3711,-1.3736,-1.3787,-1.3799,-1.3767,-1.3773,-1.3785,-1.3783,-1.3815,-1.3823,-1.382,-1.382,-1.382,0,-1.3057,-1.3087,-1.3162,-1.3191,-1.3225,-1.3271,-1.3305,-1.3356,-1.339,-1.3457,-1.3481,-1.3537,-1.3585,-1.3668,-1.372,-1.3775,-1.3789,-1.3797,-1.3798,-1.3784,-1.3791,-1.3788,-1.3792,-1.3795,-1.3795,-1.3795,-1.3795,0,-1.3062,-1.3086,-1.3133,-1.3189,-1.3228,-1.3275,-1.3323,-1.3344,-1.3405,-1.3441,-1.3496,-1.3533,-1.3607,-1.3662,-1.3724,-1.376,-1.3788,-1.3794,-1.3801,-1.3788,-1.3769,-1.3781,-1.3765,-1.3793,-1.3793,-1.3794,-1.3794,-1.3794,-1.3059,-1.3088,-1.3145,-1.3197,-1.3238,-1.3283,-1.3316,-1.336,-1.3406,-1.347,-1.3498,-1.3553,-1.3611,-1.3696,-1.3732,-1.3777,-1.3784,-1.3793,-1.3795,-1.3797,-1.3795,-1.3762,-1.3788,-1.3789,-1.3789,-1.3789,-1.3789,0,-1.3067,-1.3106,-1.3153,-1.3219,-1.326,-1.3282,-1.3337,-1.337,-1.3418,-1.3469,-1.3515,-1.3579,-1.3634,-1.369,-1.3748,-1.3773,-1.3788,-1.3787,-1.3786,-1.3794,-1.3785,-1.3774,-1.3774,-1.3774,-1.3774,-1.3774,-1.3774,-1.3774,-1.3076,-1.3126,-1.3157,-1.3229,-1.3268,-1.3323,-1.3352,-1.3394,-1.3435,-1.3504,-1.355,-1.3586,-1.364,-1.3702,-1.3753,-1.3769,-1.3789,-1.3784,-1.3803,-1.3794,-1.3795,-1.3795,-1.3785,-1.3788,-1.3788,-1.3809,-1.3809,-1.3809]}]]